Location: Proctor
(47.8934°N, 114.3048°W)
Time: 11:50:27
(UTC+00:00)

AO-91 - Pass Details

Date: 05 July 2022
Orbit: 450 x 797 km, 97.7° (Epoch: 09 August)

Event Time Altitude Azimuth Distance (km) Brightness Sun altitude
Rises 06:58:13 0° 7° (N) 2,500 ? -18.7°
Reaches altitude 10° 07:00:20 10° 360° (N) 1,603 ? -18.7°
Maximum altitude 07:03:32 41° 289° (WNW) 673 ? -18.8°
Enters shadow 07:04:41 30° 243° (WSW) 846 ? -18.8°
